カタログに戻る

SL-12 R/B

AUX MOTOR

運用中UNKNOWN
NORAD 4790·ROCKET BODY·🇷🇺 Russia

打ち上げ Dec 2, 1970 から Baikonur Cosmodrome

Loading…

次のパス (今後24時間)

TLE

最新Source: Space-Track

元期: Sep 14, 2026, 05:01 UTC

1 04790U 70103C   26257.20927386  .00000011  00000-0  23680-2 0  9993
2 04790  51.5894 196.9052 1784860 193.2830 161.4170  9.05046557844159

AllMySatでSL-12 R/Bをリアルタイム追跡

Download on the App Store